Weather in Panskoye

Russia / Tambov Oblast     52°53′48″N   40°34′38″E
temp.,
°C
wind,
m/s
gust,
m/s
humid.,
%
clouds,
%
prec.,
mm/h
press.,
hPa
HPBL,
m
3 march, wed
wed300:00−2nw4109592 0.3 1009246
03:00−1nw6119571 0.3 1010533
06:00−2nw7139699 0.3 1011622
09:00−3nnw7128888 0.5 1014636
12:00−3nw6118722 0.0 1016685
15:00−2nw6108344 0.0 1016894
18:00−4w499049 0.0 1016209
21:00−2w5129370 0.1 1016538
4 march, thu
thu400:00−1w51189100 0.1 1013664
03:00−3wsw61292100 0.1 1012498
06:00−2wsw71492100 0.0 1009661
09:000wsw81587100 0.1 1007636
12:00+1wsw7148798 0.0 1006766
15:00+1wsw7138897 0.0 1005885
18:00+1wsw61390100 0.0 1003684
21:00+1wsw51292100 0.0 1002602
5 march, fri
fri500:00+1wsw3899100 0.6 1000303
03:000wnw3898100 1.9 1000404
06:00−2n5896100 0.9 1002337
09:00−4n479397 1.1 1005369
12:00−3nnw358793 0.0 1008472
15:00−3nnw348671 0.0 1010470
18:00−6nw229168 0.0 101121
21:00−7nw128982 0.0 101321
6 march, sat
sat600:00−7nw2287100 0.0 101323
03:00−8n3493100 0.0 101499
06:00−10nnw338787 0.0 101538
09:00−9nnw358944 0.0 1016202
12:00−7nnw34850 0.0 1016324
15:00−5nw34820 0.0 1016511
18:00−9nw23900 0.0 101630
21:00−10nnw349527 0.0 101879
7 march, sun
sun700:00−12nnw238994 0.0 101851
03:00−13w238959 0.0 101834
06:00−12sw49920 0.0 1016179
09:00−8sw8148034 0.0 1014661
12:00−4sw101670100 0.0 10101074
15:00−3sw111885100 0.1 10061280
18:00−3wsw111991100 0.6 10021248
21:00−2wsw112178100 0.9 10001385